Weather History for EGQL - May, 2013

Change the Weather History Date:

Saturday, May 25, 2013

  Actual Average Record
Temperature  
Mean Temperature 50 °F -  
Max Temperature 66 °F 59 °F 66 °F (2013)
Min Temperature 35 °F 46 °F 35 °F (2013)
Degree Days  
Heating Degree Days 14    
Moisture  
Dew Point 38 °F    
Average Humidity 60    
Maximum Humidity 100    
Minimum Humidity 23    
Precipitation  
Precipitation 0.00 in - - ()
Sea Level Pressure  
Sea Level Pressure 30.13 in    
Wind  
Wind Speed 7 mph ()    
Max Wind Speed 17 mph    
Max Gust Speed -    
Visibility 10.1 miles    
Events      
Averages and records for this station are not official NWS values.
T = Trace of Precipitation, MM = Missing Value Source: Averaged Metar Reports

Daily Weather History Graph

Daily Weather History Graph

Search for Another Location

Airport or City:

Trip Planner

Search our weather history database for the weather conditions in past years. The results will help you decide how hot, cold, wet, or windy it might be!

Date:

Astronomy

May. 25, 2013 Rise Set
Actual Time 4:39 AM BST 9:38 PM BST
Civil Twilight 3:43 AM BST 10:34 PM BST
Nautical Twilight 1:56 AM BST 12:26 AM BST
Astronomical Twilight Sun does not set Sun does not set
Moon 10:07 PM BST (5/25) 4:59 AM BST (5/25)
Length of Visible Light 18h 50m
Length of Day
16h 58m
Full, 100% of the Moon is Illuminated
May 25
Full
May 31
Last Quarter
Jun 8
New
Jun 16
First Quarter
Jun 23
Full

Hourly Weather History & Observations

Time (BST) Temp. Windchill Dew Point Humidity Pressure Visibility Wind Dir Wind Speed Gust Speed Precip Events Conditions
12:50 AM 38 °F - 37 °F 93% 30.22 in 16 mi WNW 1.2 mph - -   Clear
12:50 AM 37.4 °F - 37.4 °F 100% 30.21 in - WNW 1.2 mph - N/A   Clear
1:50 AM 37.4 °F - 35.6 °F 93% 30.18 in - WNW 2.3 mph - N/A   Clear
2:50 AM 37.4 °F 32.8 °F 35.6 °F 93% 30.18 in - West 5.8 mph - N/A   Clear
3:50 AM 38 °F - 36 °F 92% 30.19 in 16 mi West 5.8 mph - -   Clear
3:50 AM 37.4 °F 32.8 °F 37.4 °F 100% 30.18 in - West 5.8 mph - N/A   Clear
4:50 AM 37.4 °F 31.4 °F 35.6 °F 93% 30.15 in - West 8.1 mph - N/A   Clear
5:50 AM 39.2 °F 35.0 °F 37.4 °F 93% 30.15 in - West 5.8 mph - N/A   Clear
6:50 AM 44 °F - 40 °F 79% 30.17 in 28 mi WSW 5.8 mph - -   Clear
6:50 AM 44.6 °F 41.4 °F 39.2 °F 81% 30.15 in - WSW 5.8 mph - N/A   Clear
7:50 AM 48.2 °F - 39.2 °F 71% 30.15 in - West 10.4 mph - N/A   Clear
8:50 AM 53.6 °F - 41.0 °F 62% 30.15 in - West 9.2 mph - N/A   Clear
9:50 AM 56 °F - 39 °F 42% 30.17 in 31 mi West 10.4 mph - -   Clear
9:50 AM 57.2 °F - 39.2 °F 51% 30.15 in - West 10.4 mph - N/A   Clear
10:50 AM 59.0 °F - 41.0 °F 51% 30.15 in 6.2 mi West 9.2 mph - N/A   Partly Cloudy
11:50 AM 60.8 °F - 39.2 °F 45% 30.15 in 6.2 mi SW 8.1 mph - N/A   Partly Cloudy
12:50 PM 61 °F - 38 °F 31% 30.14 in 31 mi WNW 8.1 mph - -   Scattered Clouds
12:50 PM 60.8 °F - 37.4 °F 42% 30.12 in 6.2 mi WNW 8.1 mph - N/A   Partly Cloudy
1:50 PM 62.6 °F - 37.4 °F 39% 30.12 in - SW 8.1 mph - N/A   Clear
2:50 PM 64.4 °F - 37.4 °F 37% 30.09 in - WSW 10.4 mph - N/A   Clear
3:50 PM 65 °F - 41 °F 30% 30.10 in 31 mi West 15.0 mph - -   Scattered Clouds
3:50 PM 66.2 °F - 41.0 °F 40% 30.09 in - West 15.0 mph - N/A   Clear
4:50 PM 64.4 °F - 37.4 °F 37% 30.06 in - WSW 17.3 mph - N/A   Clear
5:50 PM 64.4 °F - 35.6 °F 34% 30.06 in - WSW 17.3 mph - N/A   Clear
6:50 PM 63 °F - 35 °F 23% 30.08 in 28 mi WSW 17.3 mph - -   Scattered Clouds
6:50 PM 62.6 °F - 33.8 °F 34% 30.06 in - WSW 17.3 mph - N/A   Clear
7:50 PM 60.8 °F - 35.6 °F 39% 30.06 in - WSW 17.3 mph - N/A   Clear
8:50 PM 57.2 °F - 37.4 °F 48% 30.09 in - WSW 10.4 mph - N/A   Clear
9:50 PM 51 °F - 38 °F 49% 30.11 in 25 mi WSW 9.2 mph - -   Scattered Clouds
9:50 PM 51.8 °F - 37.4 °F 58% 30.09 in - WSW 9.2 mph - N/A   Clear
10:50 PM 50.0 °F - 39.2 °F 66% 30.09 in - West 10.4 mph - N/A   Clear
11:50 PM 50.0 °F - 39.2 °F 66% 30.09 in - West 11.5 mph - N/A   Clear